Weather Roundup
Issued by NWS Springfield, MO

Home | Current Version | Previous Version | Text Only | Print | Product List | Glossary On
Versions: 1 2 3 4 5 6 7 8 9 10 11 12 13 14 15 16 17 18 19 20 21 22 23 24 25 26 27 28 29 30 31 32 33 34 35 36 37 38 39 40 41 42 43 44 45 46 47 48 49 50
000
NZUS99 KSGF 260507
HRRSGF

HOURLY WEATHER
NATIONAL WEATHER SERVICE SPRINGFIELD MO
1200 AM CDT FRI AUG 26 2016

......SGF CWA......

CITY           SKY/WX    TMP DP  RH WIND       PRES   REMARKS
SPRINGFIELD    FAIR      73  66  78 CALM      30.10R
JOPLIN         FAIR      71  67  87 E3        30.08F
WEST PLAINS    FAIR      78  71  79 SW7       30.13R
ROLLA          FAIR      73  71  93 CALM      30.10R
OSAGE BEACH    FAIR      70  69  97 SE3       30.10S

......SURROUNDING SGF CWA......

CITY           SKY/WX    TMP DP  RH WIND       PRES   REMARKS
CHANUTE        FAIR      76  73  91 E6        30.07R
PARSONS        FAIR      71  68  90 CALM      30.08R
COFFEYVILLE    FAIR      72  68  87 CALM      30.05S
EMPORIA        MOCLDY    71  68  90 NE8       30.09R
GROVE OK       FAIR      75  70  83 CALM      30.06F
ROGERS AR      FAIR      75  68  78 SE6       30.12R
SILOAM SPRINGS FAIR      72  61  68 SE7       30.11S
HARRISON AR    FAIR      74  69  85 S7        30.12F
NEAR YELLVILLE FAIR      75  72  88 CALM      30.08R

......KANSAS AND MISSOURI......

CITY           SKY/WX    TMP DP  RH WIND       PRES   REMARKS
KANSAS CTY INT CLOUDY    70  65  84 N7        30.11R
DOWNTOWN KC    FAIR      73  67  81 N6        30.09S
COLUMBIA       FAIR      75  73  93 NE5       30.08F
SEDALIA        FAIR      75  73  93 NW3       30.09S
ST JOSEPH      CLOUDY    67  63  87 N6        30.12R
ST LOUIS       CLOUDY    79  68  69 N12       30.09R THUNDER
SPIRIT OF STL  MOCLDY    80  75  84 CALM      30.07R
KIRKSVILLE     MOCLDY    67  64  90 N7        30.12R
WICHITA        MOCLDY    74  67  78 NE13      30.07F
TOPEKA         FAIR      69  64  84 N7        30.09F
OLATHE         CLOUDY    72  70  93 E12       30.10R

......TENNESSEE......

CITY           SKY/WX    TMP DP  RH WIND       PRES   REMARKS
MEMPHIS        FAIR      81  72  74 SE3       30.08F
NASHVILLE      FAIR      78  75  90 CALM      30.11S

......ARKANSAS.......

CITY           SKY/WX    TMP DP  RH WIND       PRES   REMARKS
FAYETTEVILLE   FAIR      70  68  93 CALM      30.11S
FT SMITH       FAIR      76  68  76 E5        30.08S
LITTLE ROCK    CLOUDY    77  72  84 SW8       30.10F

......OKLAHOMA.......

CITY           SKY/WX    TMP DP  RH WIND       PRES   REMARKS
TULSA          CLOUDY    77  69  76 SE7       30.04R
PONCA CITY     FAIR      75  68  78 SW8       30.07R
MCALESTER      FAIR      78  67  68 S6        30.07S
OKLAHOMA CITY  MOCLDY    73  64  73 NE13      30.08R

......IOWA............

CITY           SKY/WX    TMP DP  RH WIND       PRES   REMARKS
DES MOINES     FAIR      66  62  87 CALM      30.12S
QUAD CITIES    FAIR      65  62  90 CALM      30.10S

......ILLINOIS........

CITY           SKY/WX    TMP DP  RH WIND       PRES   REMARKS
QUINCY         MOCLDY    71  68  90 NE6       30.09S
CHICAGO        MOCLDY    68  64  87 W5        30.08S




USA.gov is the U.S. government's official web portal to all federal, state and local government web resources and services.